Weather in Tochilny

Russia / Chelyabinsk Oblast     55°05′49″N   57°10′56″E
temp.,
°C
wind,
m/s
gust,
m/s
humid.,
%
clouds,
%
prec.,
mm/h
press.,
hPa
HPBL,
m
11 may, tue
tue1123:00+13e24594 0.0 102359
02:00+11ene22633 0.0 102432
05:00+10e22675 0.0 102516
08:00+15e12525 0.0 1026168
11:00+22ene123338 0.0 10261084
14:00+23nne2226100 0.0 10262151
17:00+23ne2325100 0.0 10262096
20:00+18ne2247100 0.0 102728
12 may, wed
wed1223:00+14ene225295 0.0 102822
02:00+11ene22573 0.0 102914
05:00+10e22610 0.0 102912
08:00+16ese11490 0.0 1029155
11:00+22ssw01330 0.0 1029886
14:00+26wsw11260 0.0 10282124
17:00+25w3227100 0.0 10272298
20:00+19w115337 0.0 102811
13 may, thu
thu1323:00+15nne11619 0.0 102811
02:00+13ene11730 0.0 102911
05:00+12e11835 0.0 102910
08:00+18ene11635 0.0 1029177
11:00+24nne124272 0.0 10281388
14:00+27nw11335 0.0 10272250
17:00+26nw223427 0.0 10262366
20:00+21nw245878 0.0 102688
14 may, fri
fri1423:00+17ene22700 0.0 102716
02:00+15e21660 0.0 102712
05:00+14e11701 0.0 102810
08:00+19sse11570 0.0 1028178
11:00+24wsw22450 0.0 1027862
14:00+27w333613 0.0 10262318
17:00+26w443538 0.0 10262153
20:00+21wsw22565 0.0 102516
15 may, sat
sat1523:00+16se11695 0.0 102611
02:00+14se11740 0.0 102511
05:00+14se11745 0.0 102610
08:00+19ssw12559 0.0 1026182
11:00+25sw233764 0.0 1025859
14:00+27w333066 0.0 10241959
17:00+26wsw3433100 0.0 10221813
20:00